Regional Weather Roundup
Issued by NWS Little Rock, AR

Home | Current Version | Previous Version | Text Only | Print | Product List | Glossary Off
Versions: 1 2 3 4 5 6 7 8 9 10 11 12 13 14 15 16 17 18 19 20 21 22 23 24 25 26 27 28 29 30 31 32 33 34 35 36 37 38 39 40 41 42 43 44 45 46

000
ASUS44 KLZK 261805
RWRLZK

WEATHER ROUNDUP FOR ARKANSAS
NATIONAL WEATHER SERVICE LITTLE ROCK AR
1200 PM CST FRI DEC 26 2014

NOTE: "FAIR" INDICATES FEW OR NO CLOUDS BELOW 12,000 FEET WITH NO
SIGNIFICANT WEATHER AND/OR OBSTRUCTIONS TO VISIBILITY.

ARZ001-003-010-029-261900-
NORTHWEST ARKANSAS

CITY           SKY/WX    TMP DP  RH WIND       PRES   REMARKS
FAYETTEVILLE   CLOUDY    53  46  77 S18G25    30.01F
6HR MIN TEMP:  41; 6HR MAX TEMP:  55;

FORT SMITH     CLOUDY    55  46  71 SE8G17    30.04F
6HR MIN TEMP:  38; 6HR MAX TEMP:  56;

HARRISON       PTSUNNY   51  45  79 S17G26    30.05F
6HR MIN TEMP:  40; 6HR MAX TEMP:  53;

BENTONVILLE    CLOUDY    55  45  67 S12       30.01F
6HR MIN TEMP:  46; 6HR MAX TEMP:  55;

ROGERS         CLOUDY    56  46  69 S20       30.00F
6HR MIN TEMP:  45; 6HR MAX TEMP:  56;

SILOAM SPGS    CLOUDY    55  43  62 S14G23    30.00F
6HR MIN TEMP:  46; 6HR MAX TEMP:  57;

HIGHFILL       CLOUDY    55  46  71 S17       29.99F
6HR MIN TEMP:  43; 6HR MAX TEMP:  56;

SPRINGDALE     CLOUDY    57  46  67 S12G25    30.03F
$$

ARZ004-005-016-261900-
NORTH CENTRAL ARKANSAS

CITY           SKY/WX    TMP DP  RH WIND       PRES   REMARKS
BATESVILLE     CLOUDY    48  37  66 S7        30.16F
6HR MIN TEMP:  43; 6HR MAX TEMP:  48;

FLIPPIN        CLOUDY    52  43  71 S9        30.10F
6HR MIN TEMP:  43; 6HR MAX TEMP:  52;

MTN HOME       CLOUDY    52  44  74 S10       30.09F
6HR MIN TEMP:  41; 6HR MAX TEMP:  52;

$$

ARZ040-041-261900-
WEST CENTRAL ARKANSAS

CITY           SKY/WX    TMP DP  RH WIND       PRES   REMARKS
MENA           CLOUDY    52  50  93 SE5       30.05F
MOUNT IDA      CLOUDY    51  47  86 VRB5      30.06F
6HR MIN TEMP:  47; 6HR MAX TEMP:  52; 6HR PCP: TRACE;

$$

ARZ009-017-025-026-028-261900-
NORTHEAST ARKANSAS

CITY           SKY/WX    TMP DP  RH WIND       PRES   REMARKS
CORNING          N/A     50  39  66 S15       30.18F
JONESBORO      CLOUDY    52  43  71 S15G24    30.18F
6HR MIN TEMP:  38; 6HR MAX TEMP:  52;

NEWPORT        CLOUDY    49  41  74 S13       30.18F
6HR MIN TEMP:  40; 6HR MAX TEMP:  49; 6HR PCP: TRACE;

WALNUT RIDGE   PTSUNNY   48  37  66 S15       30.17F
6HR MIN TEMP:  37; 6HR MAX TEMP:  48;

BLYTHEVILLE    FAIR      51  41  68 S12       30.20F
6HR MIN TEMP:  41; 6HR MAX TEMP:  51;

$$

ARZ022-023-033-042-044-261900-
CENTRAL ARKANSAS

CITY           SKY/WX    TMP DP  RH WIND       PRES   REMARKS
LITTLE ROCK    CLOUDY    52  39  61 SE6       30.15F
6HR MIN TEMP:  41; 6HR MAX TEMP:  52;

N LITTLE ROCK  CLOUDY    50  42  73 S8        30.15F
6HR MIN TEMP:  43; 6HR MAX TEMP:  50;

JACKSONVILLE   PTSUNNY   53  40  63 S10       30.14F
6HR MIN TEMP:  38; 6HR MAX TEMP:  53;

SEARCY         CLOUDY    51  41  68 SE8       30.17F
6HR MIN TEMP:  39; 6HR MAX TEMP:  51;

HOT SPRINGS    CLOUDY    48  44  86 E9        30.12F
6HR MIN TEMP:  45; 6HR MAX TEMP:  50; 6HR PCP: TRACE;

RUSSELLVILLE   CLOUDY    50  42  74 SE6       30.10F
6HR MIN TEMP:  44; 6HR MAX TEMP:  50;

CLINTON        CLOUDY    46  39  76 CALM      30.16F
$$

ARZ036-261900-
EAST ARKANSAS

CITY           SKY/WX    TMP DP  RH WIND       PRES   REMARKS
WEST MEMPHIS   FAIR      55  40  56 S15       30.19F
6HR MIN TEMP:  40; 6HR MAX TEMP:  56;

$$

ARZ050-053-066-070-073-261900-
SOUTHWEST ARKANSAS

CITY           SKY/WX    TMP DP  RH WIND       PRES   REMARKS
ARKADELPHIA    MOCLDY    51  49  93 CALM      30.13F
6HR MIN TEMP:  40; 6HR MAX TEMP:  51; 6HR PCP: TRACE;

CAMDEN         CLOUDY    52  45  76 MISG      30.15F
TEXARKANA      CLOUDY    55  51  86 SE9       30.07F
6HR MIN TEMP:  46; 6HR MAX TEMP:  55; 6HR PCP: TRACE;

EL DORADO      CLOUDY    53  46  77 SE8       30.13F
6HR MIN TEMP:  45; 6HR MAX TEMP:  53;

DE QUEEN       CLOUDY    50  48  93 E6        30.05F
6HR MIN TEMP:  46; 6HR MAX TEMP:  52; 6HR PCP: TRACE;

$$

ARZ056-057-069-261900-
SOUTHEAST ARKANSAS

CITY           SKY/WX    TMP DP  RH WIND       PRES   REMARKS
PINE BLUFF     CLOUDY    52  43  71 SE8       30.16F
6HR MIN TEMP:  40; 6HR MAX TEMP:  52;

STUTTGART      CLOUDY    52  37  58 SE13      30.17F
6HR MIN TEMP:  43; 6HR MAX TEMP:  52;

MONTICELLO     CLOUDY    54  45  71 SE9       30.17F
6HR MIN TEMP:  41; 6HR MAX TEMP:  54;


$$





USA.gov is the U.S. government's official web portal to all federal, state and local government web resources and services.